EN

Hourly Weather Ameyalco

Today, 22 January, Friday

Time Temperature Precipitation Wind Pressure Humidity
00:00 +19°C° 0 mm 1 mps 684 mmHg 85%
01:00 +19°C° 0 mm 1 mps 684 mmHg 82%
02:00 +19°C° 0 mm 1 mps 684 mmHg 79%
03:00 +19°C° 0 mm 1 mps 684 mmHg 75%
04:00 +19°C° 0 mm 1 mps 684 mmHg 73%
05:00 +19°C° 0 mm 1 mps 684 mmHg 70%
06:00 +19°C° 0 mm 1 mps 684 mmHg 68%
07:00 +21°C° 0 mm 1 mps 684 mmHg 64%
08:00 +21°C° 0 mm 0 mps 685 mmHg 60%
09:00 +22°C° 0 mm 0 mps 686 mmHg 55%
10:00 +24°C° 0 mm 0 mps 686 mmHg 53%
11:00 +27°C° 0 mm 1 mps 686 mmHg 51%
12:00 +29°C° 0 mm 1 mps 686 mmHg 48%
13:00 +29°C° 0 mm 1 mps 685 mmHg 49%
14:00 +29°C° 0 mm 1 mps 684 mmHg 51%
15:00 +29°C° 0 mm 1 mps 683 mmHg 52%
16:00 +27°C° 0 mm 1 mps 683 mmHg 62%
17:00 +25°C° 0 mm 1 mps 683 mmHg 72%
18:00 +21°C° 0 mm 0 mps 682 mmHg 83%
19:00 +20°C° 0 mm 0 mps 683 mmHg 82%
20:00 +22°C° 0 mm 1 mps 683 mmHg 81%
21:00 +21°C° 0 mm 1 mps 684 mmHg 80%
22:00 +21°C° 0 mm 1 mps 684 mmHg 77%
23:00 +20°C° 0 mm 1 mps 684 mmHg 75%

Tomorrow, 23 January, Saturday

Time Temperature Precipitation Wind Pressure Humidity
00:00 +20°C° 0 mm 1 mps 684 mmHg 72%
01:00 +20°C° 0 mm 1 mps 684 mmHg 70%
02:00 +20°C° 0 mm 1 mps 684 mmHg 69%
03:00 +19°C° 0 mm 1 mps 684 mmHg 68%
04:00 +19°C° 0 mm 1 mps 684 mmHg 68%
05:00 +19°C° 0 mm 1 mps 684 mmHg 67%
06:00 +19°C° 0 mm 1 mps 684 mmHg 67%
07:00 +20°C° 0 mm 1 mps 685 mmHg 64%
08:00 +20°C° 0 mm 0 mps 686 mmHg 60%
09:00 +22°C° 0 mm 0 mps 686 mmHg 57%
10:00 +23°C° 0 mm 0 mps 686 mmHg 56%
11:00 +26°C° 0 mm 1 mps 686 mmHg 56%
12:00 +27°C° 0 mm 1 mps 686 mmHg 55%
13:00 +27°C° 0 mm 1 mps 685 mmHg 56%
14:00 +28°C° 0 mm 1 mps 684 mmHg 58%
15:00 +28°C° 0 mm 2 mps 684 mmHg 59%
16:00 +26°C° 0 mm 1 mps 683 mmHg 68%
17:00 +24°C° 0 mm 1 mps 683 mmHg 78%
18:00 +21°C° 0 mm 0 mps 683 mmHg 88%
19:00 +20°C° 0 mm 0 mps 683 mmHg 89%
20:00 +19°C° 0 mm 0 mps 683 mmHg 90%
21:00 +18°C° 0 mm 0 mps 684 mmHg 91%
22:00 +20°C° 0 mm 1 mps 684 mmHg 83%
23:00 +20°C° 0 mm 1 mps 684 mmHg 74%

Day after tomorrow, 24 January, Sunday

Time Temperature Precipitation Wind Pressure Humidity
00:00 +19°C° 0 mm 1 mps 684 mmHg 66%
01:00 +19°C° 0 mm 1 mps 683 mmHg 60%
02:00 +19°C° 0 mm 1 mps 683 mmHg 54%
03:00 +19°C° 0 mm 1 mps 683 mmHg 48%
04:00 +19°C° 0 mm 1 mps 683 mmHg 45%
05:00 +19°C° 0 mm 1 mps 683 mmHg 43%
06:00 +18°C° 0 mm 1 mps 683 mmHg 41%
07:00 +20°C° 0 mm 1 mps 683 mmHg 41%
08:00 +21°C° 0 mm 1 mps 684 mmHg 42%
09:00 +21°C° 0 mm 0 mps 685 mmHg 42%
10:00 +25°C° 0 mm 1 mps 684 mmHg 42%
11:00 +26°C° 0 mm 1 mps 684 mmHg 43%
12:00 +28°C° 0 mm 1 mps 684 mmHg 43%
13:00 +28°C° 0 mm 1 mps 684 mmHg 44%
14:00 +28°C° 0 mm 1 mps 683 mmHg 45%
15:00 +28°C° 0 mm 1 mps 682 mmHg 46%
16:00 +27°C° 0 mm 1 mps 682 mmHg 56%
17:00 +25°C° 0 mm 1 mps 681 mmHg 66%
18:00 +21°C° 0 mm 0 mps 681 mmHg 76%
19:00 +22°C° 0 mm 1 mps 682 mmHg 74%
20:00 +22°C° 0 mm 1 mps 682 mmHg 72%
21:00 +21°C° 0 mm 1 mps 682 mmHg 70%
22:00 +21°C° 0 mm 1 mps 682 mmHg 69%
23:00 +21°C° 0 mm 1 mps 682 mmHg 68%

25 January, Monday

Time Temperature Precipitation Wind Pressure Humidity
00:00 +21°C° 0 mm 1 mps 682 mmHg 67%
01:00 +21°C° 0 mm 1 mps 682 mmHg 68%
02:00 +20°C° 0 mm 1 mps 682 mmHg 68%
03:00 +19°C° 0 mm 2 mps 681 mmHg 69%
04:00 +19°C° 0 mm 2 mps 681 mmHg 69%
05:00 +19°C° 0 mm 2 mps 681 mmHg 70%
06:00 +19°C° 0 mm 2 mps 681 mmHg 70%
07:00 +22°C° 0 mm 1 mps 682 mmHg 65%
08:00 +24°C° 0 mm 1 mps 683 mmHg 60%
09:00 +26°C° 0 mm 1 mps 684 mmHg 55%
10:00 +27°C° 0 mm 1 mps 683 mmHg 52%
11:00 +28°C° 0 mm 1 mps 683 mmHg 50%
12:00 +29°C° 0 mm 1 mps 683 mmHg 47%
13:00 +30°C° 0 mm 1 mps 682 mmHg 47%
14:00 +30°C° 0 mm 1 mps 682 mmHg 47%
15:00 +30°C° 0 mm 1 mps 681 mmHg 47%
16:00 +28°C° 0.1 mm 1 mps 681 mmHg 57%
17:00 +26°C° 0.1 mm 1 mps 681 mmHg 67%
18:00 +22°C° 0.1 mm 0 mps 680 mmHg 77%
19:00 +22°C° 0 mm 0 mps 681 mmHg 76%
20:00 +23°C° 0 mm 1 mps 681 mmHg 75%
21:00 +22°C° 0 mm 1 mps 682 mmHg 74%
22:00 +22°C° 0 mm 1 mps 682 mmHg 70%
23:00 +21°C° 0 mm 2 mps 682 mmHg 67%

26 January, Tuesday

Time Temperature Precipitation Wind Pressure Humidity
00:00 +21°C° 0 mm 2 mps 682 mmHg 63%
01:00 +21°C° 0 mm 2 mps 682 mmHg 62%
02:00 +21°C° 0 mm 2 mps 682 mmHg 61%
03:00 +20°C° 0 mm 2 mps 682 mmHg 60%
04:00 +20°C° 0 mm 2 mps 682 mmHg 60%
05:00 +20°C° 0 mm 2 mps 682 mmHg 60%
06:00 +20°C° 0 mm 2 mps 682 mmHg 60%
07:00 +22°C° 0 mm 1 mps 682 mmHg 58%
08:00 +24°C° 0 mm 1 mps 683 mmHg 55%
09:00 +23°C° 0 mm 0 mps 684 mmHg 53%
10:00 +27°C° 0 mm 1 mps 684 mmHg 50%
11:00 +28°C° 0 mm 1 mps 684 mmHg 48%
12:00 +29°C° 0 mm 2 mps 684 mmHg 45%
13:00 +30°C° 0 mm 2 mps 683 mmHg 46%
14:00 +30°C° 0 mm 2 mps 682 mmHg 47%
15:00 +30°C° 0 mm 2 mps 682 mmHg 47%
16:00 +28°C° 0 mm 2 mps 681 mmHg 57%
17:00 +26°C° 0 mm 1 mps 681 mmHg 67%
18:00 +24°C° 0 mm 1 mps 681 mmHg 77%
19:00 +23°C° 0 mm 1 mps 682 mmHg 78%
20:00 +23°C° 0 mm 1 mps 682 mmHg 79%
21:00 +22°C° 0 mm 1 mps 683 mmHg 80%
22:00 +22°C° 0 mm 1 mps 683 mmHg 77%
23:00 +22°C° 0 mm 1 mps 683 mmHg 74%

27 January, Wednesday

Time Temperature Precipitation Wind Pressure Humidity
00:00 +22°C° 0 mm 1 mps 683 mmHg 72%
01:00 +21°C° 0 mm 1 mps 683 mmHg 71%
02:00 +21°C° 0 mm 1 mps 682 mmHg 69%
03:00 +21°C° 0 mm 1 mps 682 mmHg 68%
04:00 +21°C° 0 mm 1 mps 682 mmHg 66%
05:00 +21°C° 0 mm 1 mps 683 mmHg 65%
06:00 +21°C° 0 mm 1 mps 683 mmHg 63%
07:00 +23°C° 0 mm 1 mps 684 mmHg 59%
08:00 +24°C° 0 mm 1 mps 685 mmHg 55%
09:00 +24°C° 0 mm 0 mps 685 mmHg 51%
10:00 +28°C° 0 mm 1 mps 686 mmHg 49%
11:00 +29°C° 0 mm 1 mps 686 mmHg 47%
12:00 +30°C° 0 mm 2 mps 686 mmHg 45%
13:00 +30°C° 0.2 mm 2 mps 685 mmHg 51%
14:00 +29°C° 0.2 mm 3 mps 685 mmHg 58%
15:00 +28°C° 0.2 mm 3 mps 684 mmHg 64%
16:00 +26°C° 0.8 mm 2 mps 685 mmHg 73%
17:00 +25°C° 0.8 mm 2 mps 685 mmHg 82%
18:00 +23°C° 0.8 mm 1 mps 685 mmHg 91%
19:00 +22°C° 1.9 mm 1 mps 686 mmHg 93%
20:00 +22°C° 1.9 mm 1 mps 687 mmHg 95%
21:00 +21°C° 1.9 mm 1 mps 687 mmHg 97%
22:00 +21°C° 0.4 mm 1 mps 688 mmHg 97%
23:00 +21°C° 0.4 mm 1 mps 688 mmHg 97%
Show more